ZIYUAN 3-1 (ZY 3-1)

Last updated on Thu Oct 30 2025 00:02:31 GMT+0000 (Coordinated Universal Time)

1 38046U 12001A 25302.46554493 .00066459 00000+0 76548-3 0 9999 2 38046 97.1830 8.0655 0003452 130.6626 229.4933 15.61758750768045
UTC large
Height (km)
Speed (km/s)
/
Latitude / Longitude
Inclination (degrees)
Orbital Period (minutes)
Azimuth
Elevation
Range (km)
Doppler Factor

Next 0 passes for location: London (51.5072 / 0.1276)

Sorry there are no passes over London.